カタログに戻る

STARLINK-30575

運用中通信VLEO
NORAD 58052·PAYLOAD·🇺🇸 United States

打ち上げ Oct 13, 2023 から Cape Canaveral Space Force Station

Loading…

次のパス (今後24時間)

TLE

最新Source: CelesTrak SupGP

元期: Sep 15, 2026, 01:49 UTC

1 58052C 23158B   26258.07618056 -.00029910  00000+0 -10832-2 0  2581
2 58052  43.0040  37.8531 0001447 269.2755 319.5081 15.27596845    12

AllMySatでSTARLINK-30575をリアルタイム追跡

Download on the App Store